DELTA 1 DEB

Satellite information

Favourite Embed

Satellite Type and Status

DEBRISIN ORBIT

Key statistics

Satellite DELTA 1 DEB at a glance.

Uptime

17354

Days in orbit

Revolutions

≈ 15.1

Per day

Orbit

SSO

Sun Synchronous Orbit

Inclination

98.7

Latest

Satellite identification and parameters

Extended collection of information and parameters for DELTA 1 DEB.

Object identification

Identified? True

Debris? True

Object name: DELTA 1 DEB

International designator: 1978-026HU

Object number (NORAD): 26614

Object ID (CCSDS): 26614

Country: UNITED STATES OF AMERICA (US)

Current information (Y/N): Y

RCS size: SMALL

Orbital parameters

Period: 95.664 minutes

Inclination: 98.712 deg

SMA: 6928.815 km

Apoapsis: 571.098 km

Periapsis: 530.261 km

RAAN: 107.9917 deg

Eccentricy: 0.00294691

Argument of periapsis: 94.7636 deg

Mean anomaly: 334.8721 deg

Mean motion: 15.05269753 rev/day

Mean motion (dot): 0.0006273 rev/day2

B* drag term: 0.0043168842 1/REarth

Two-line elements (TLE)

Creation date: Sept. 8, 2025, 3:16 a.m.

Reference frame: TEME

Reference center: EARTH

Epoch: Sept. 7, 2025, 1:40 p.m. UTC

TLE line 0: 0 DELTA 1 DEB

TLE line 1: 1 26614U 78026HU 25250.56984824 .00062730 00000-0 43169-2 0 9995

TLE line 2: 2 26614 98.7120 107.9917 0029469 94.7636 334.8721 15.05269753295756

Live tracking on map

Real-time ground track for satellite DELTA 1 DEB.

In-orbit conjunctions

A list of the most updated potential collisions computed for object DELTA 1 DEB.

Target Orbit TCA Probability of collision Miss distance Type
UPM/LBSAT SSO 2025-03-06 09:43:40 0.0002237227 319.0 (m) PAYLOAD
CZ-6A DEB LEO 2024-12-11 03:57:48 0.00117239 150.0 (m) DEBRIS
GP-B LEO 2024-11-19 16:57:21 0.0001385008 267.0 (m) PAYLOAD

Associated space launch

Earth observation satellite

DELTA 1 DEB was lifted into orbit during the mission ‘Delta 2910 | Landsat 3’, on board a Delta 2910 space rocket.

The launch took place on March 5, 1978, 5:54 p.m. from Space Launch Complex 2W.

For more information about the launch, click the button.

Launch to space Delta 2910 | Landsat 3
Delta 2910 | Landsat 3

Agency: N/A

Status: Launch Successful

Launch date: March 5, 1978, 5:54 p.m. UTC

Rocket: Delta 2910

Launch pad: Space Launch Complex 2W

Location: Vandenberg SFB, CA, USA

...

Latest news about this satellite

There are no fresh news available about this satellite. Check back as we update our databases every day.


Newsletter sign-up

Weekly statistics, charts and insights to help you stay on top of the space industry.